Wind_Speed
29 30 28 26 26 25 25 24 21 19 18 22 29 32 29 26 29 32 33 31 31 31 32 35 39 39 34 32 30 31 34 34 35 36 38 40 41 42 42 40 40 38 35 34
30 28 25 26 26 26 26 29 28 26 24 25 29 34 36 33 31 32 35 35 33 33 36 38 42 43 39 34 34 34 36 37 38 39 41 43 44 45 44 43 42 40 36 35
26 22 24 26 27 27 28 29 29 29 29 31 33 36 39 40 36 36 38 40 38 36 38 41 44 45 43 41 39 38 38 39 40 41 43 45 47 47 46 45 43 41 40 38
23 23 22 23 25 26 27 27 28 30 32 33 34 37 37 38 35 34 35 38 39 37 38 42 45 46 44 43 41 41 40 39 40 42 45 46 47 48 48 47 45 43 42 41
20 20 22 21 21 23 23 23 25 26 29 33 35 38 37 33 31 31 31 33 37 39 39 41 43 44 43 42 42 41 40 40 42 44 45 46 47 48 47 47 46 45 44 43
20 18 19 19 19 20 19 21 23 24 26 30 28 30 33 29 29 28 27 28 34 38 39 41 40 38 38 40 40 40 40 41 43 44 46 46 47 48 47 47 47 46 46 45
20 20 20 19 18 18 18 18 19 20 21 22 17 21 23 19 20 24 26 29 34 38 39 40 37 36 37 38 38 39 40 42 43 44 46 47 47 48 48 48 48 47 48 46
21 21 20 21 20 19 19 19 19 18 17 16 15 16 15 16 20 25 28 32 35 38 38 38 37 36 36 36 37 38 39 41 42 44 45 46 47 47 48 48 48 48 48 48
21 18 19 22 22 22 21 22 19 20 21 23 23 22 19 19 23 28 30 30 30 31 32 33 33 33 34 35 36 38 39 40 41 42 43 45 46 46 46 48 48 47 48 50
28 26 19 17 22 25 23 21 22 24 24 25 24 21 20 22 23 23 25 26 27 26 27 28 28 30 32 34 35 36 38 39 40 42 43 45 46 46 46 46 46 48 50 52
32 32 26 20 23 24 24 23 24 25 25 24 24 20 17 23 24 25 26 26 28 29 33 32 30 30 32 34 36 37 38 39 41 42 44 45 46 46 47 48 49 51 53 55
33 34 33 30 25 24 25 24 23 26 27 27 28 26 23 28 30 30 31 34 36 38 37 35 31 30 32 34 36 37 39 40 42 43 45 46 47 48 50 52 53 54 55 57
36 37 37 33 30 27 27 27 27 28 28 28 27 26 24 30 33 34 36 39 40 37 35 32 30 32 34 36 37 38 40 42 43 45 47 49 51 52 54 55 55 56 57 58
36 38 37 33 27 28 31 32 31 30 30 31 29 27 30 34 36 36 38 39 36 30 29 32 35 37 38 39 41 42 44 46 47 50 52 53 54 55 55 55 56 58 59 60
38 39 39 38 36 33 32 33 33 33 34 32 30 29 34 37 39 40 41 41 40 41 44 46 45 44 45 45 46 47 49 51 52 54 55 56 56 55 55 56 57 60 63 64
38 39 39 40 38 39 40 39 37 35 33 34 35 36 44 48 48 48 49 50 51 53 54 53 52 50 50 49 50 51 52 54 55 56 56 56 56 56 56 57 60 63 65 67
35 36 37 38 38 39 42 41 42 44 44 45 45 48 50 49 49 49 50 51 52 54 54 54 54 54 53 52 52 52 53 53 54 55 55 54 55 56 58 59 61 65 66 64
33 34 35 36 37 39 38 38 41 43 45 47 48 48 48 47 47 47 47 49 50 51 52 53 53 54 53 52 51 51 51 51 51 51 51 52 54 57 59 61 64 66 64 59
31 32 33 34 35 35 32 36 39 40 43 44 45 45 45 44 46 46 46 47 48 49 49 50 50 50 50 49 48 48 47 47 48 49 49 52 55 58 60 61 62 60 57 52
28 29 30 31 32 31 34 36 37 37 41 40 40 40 40 41 43 44 44 45 46 46 47 47 47 47 46 45 45 44 44 44 45 47 49 52 56 58 57 56 54 51 48 46
24 24 25 27 29 31 33 34 35 38 41 40 39 39 39 40 41 41 42 42 42 43 43 42 42 41 40 40 39 39 40 41 43 46 50 53 54 53 50 48 46 45 45 46
25 24 24 26 28 32 32 33 35 37 37 38 37 38 38 38 39 39 39 38 38 38 37 37 36 35 35 34 34 36 38 41 43 46 48 48 47 46 44 43 43 43 43 43
24 25 25 26 27 29 30 32 33 34 35 35 36 36 37 37 37 36 35 34 33 32 32 31 31 30 30 30 32 35 38 41 42 43 41 40 39 39 40 41 41 40 39 36
22 21 22 25 27 29 30 31 32 32 33 34 34 35 35 34 33 32 31 29 28 27 27 26 26 26 27 29 32 35 36 37 36 34 33 34 35 36 37 38 36 34 31 28
21 20 21 23 26 27 28 29 29 30 30 31 31 30 28 27 25 24 23 22 22 22 21 21 22 23 25 27 28 28 28 28 29 30 31 33 34 34 33 30 27 25 22 21
20 20 21 22 24 25 26 26 26 25 24 23 22 20 19 18 17 16 16 15 15 16 17 18 20 20 21 21 22 23 24 26 28 30 31 31 30 27 25 22 20 19 18 19
Wind_Direction
236 237 238 240 241 238 235 233 237 251 254 244 251 257 255 245 254 258 258 259 264 270 274 278 282 284 287 292 293 292 291 291 290 291 291 292 293 294 296 296 294 296 289 284
237 238 240 239 238 239 236 235 230 228 227 230 239 249 254 247 245 258 264 263 261 263 268 272 277 281 285 290 292 290 288 287 287 287 288 288 289 290 292 295 296 297 291 290
237 235 237 238 238 239 240 241 238 236 232 229 232 242 251 257 253 253 261 267 267 264 266 269 272 277 283 287 289 287 284 283 283 284 284 285 286 288 291 295 297 298 294 293
230 226 232 239 241 243 246 247 246 243 241 239 240 251 256 265 269 266 264 267 271 269 269 271 272 275 280 284 284 283 281 281 281 282 283 283 285 287 290 292 294 295 295 293
222 224 231 240 243 244 247 247 248 250 251 251 248 252 258 262 264 266 270 270 268 269 272 274 273 273 277 279 279 279 278 279 280 281 282 283 285 286 289 292 293 293 294 295
214 220 233 238 242 245 247 248 250 251 254 259 265 268 271 269 266 266 270 266 263 267 272 273 276 274 273 272 273 275 277 278 279 281 283 284 286 288 290 291 293 293 293 293
220 220 229 237 239 245 248 250 254 260 264 274 288 287 293 291 271 257 253 252 256 261 267 272 274 272 268 267 269 271 274 277 279 281 283 285 286 287 289 291 291 291 291 291
230 233 235 240 243 244 250 254 254 253 256 266 267 273 281 269 259 253 253 257 260 266 269 269 268 267 266 266 267 270 273 276 279 281 282 284 284 286 288 289 289 289 290 292
227 243 254 255 254 250 244 249 258 261 258 254 250 244 244 262 273 278 279 275 270 268 267 265 263 263 264 266 268 270 272 275 277 279 281 282 284 286 287 288 288 290 292 294
218 218 217 240 253 257 253 245 244 251 258 263 266 267 271 265 262 263 264 266 265 264 270 270 264 263 265 266 268 270 273 275 277 279 280 282 284 286 288 289 291 294 295 296
223 225 219 214 233 243 255 258 251 250 251 258 266 266 266 271 265 257 257 262 262 269 276 276 271 270 268 269 270 272 274 276 278 280 282 283 285 287 289 290 293 295 295 296
230 231 230 224 227 245 251 249 254 259 259 256 258 261 260 267 265 263 262 262 265 271 274 275 273 273 273 273 274 275 277 278 280 282 284 286 288 290 292 292 294 295 296 296
235 237 239 237 234 237 247 248 244 249 254 256 258 264 266 267 265 265 265 267 269 267 268 275 281 281 279 278 278 279 280 281 283 285 287 289 290 292 293 293 294 296 296 295
242 243 243 240 238 236 237 239 241 244 247 252 253 256 256 259 263 265 266 267 265 268 278 283 285 284 282 280 280 281 281 283 284 286 288 290 291 292 293 293 294 295 294 295
244 244 244 241 236 236 239 240 240 239 236 241 247 252 259 260 260 262 264 266 270 279 285 287 285 283 282 281 281 282 283 284 286 287 288 290 291 292 293 294 294 295 295 295
246 247 247 247 243 240 240 241 243 245 247 251 255 259 258 258 260 263 266 270 275 280 282 283 283 282 282 282 283 283 284 285 286 287 288 290 291 291 292 292 293 294 293 293
254 253 252 251 249 247 247 248 249 249 251 253 256 258 263 266 268 270 272 273 275 277 279 280 281 283 284 284 284 284 284 284 285 286 288 289 290 290 291 292 292 291 291 293
254 254 253 253 252 252 255 252 252 254 256 259 261 264 268 271 274 275 275 275 277 278 280 282 283 284 285 286 285 285 284 284 285 286 287 288 289 289 290 290 290 292 293 295
254 254 254 254 255 256 255 256 257 258 259 262 265 268 270 274 275 275 276 278 279 280 281 282 283 284 284 285 285 284 284 284 285 286 287 288 288 288 288 289 290 292 296 300
255 255 254 254 254 252 250 254 259 262 264 266 268 271 272 274 274 277 278 280 280 281 282 283 284 284 284 284 284 284 284 284 285 286 287 286 287 288 289 291 294 297 300 303
258 259 257 255 254 250 252 256 259 260 265 271 273 274 274 274 275 278 280 281 282 283 284 284 285 285 285 285 285 284 284 284 283 284 284 285 286 288 293 297 301 304 304 304
261 262 260 258 256 253 257 259 261 265 270 272 274 275 276 277 278 279 280 281 282 283 284 285 285 286 287 287 287 286 284 283 282 283 285 287 290 295 299 303 305 305 306 306
258 259 260 261 261 263 264 265 267 269 271 273 274 275 277 277 278 279 280 281 283 284 285 285 286 287 288 287 285 282 281 281 283 287 291 296 301 303 305 306 307 308 309 310
260 261 261 262 263 267 269 271 272 273 274 275 275 276 276 276 277 277 278 280 282 284 286 288 289 290 288 285 282 282 285 288 293 300 304 306 306 307 308 310 312 314 315 316
266 267 266 266 268 270 271 273 274 275 275 276 276 276 275 274 273 275 277 279 282 286 290 292 293 292 289 288 289 295 300 306 308 309 309 309 311 313 316 318 320 321 322 324
266 268 270 270 270 272 274 275 276 275 275 275 276 274 271 269 269 272 275 279 285 291 294 296 296 296 299 303 307 310 312 312 311 312 314 317 319 321 324 326 328 329 329 330
Height
5823 5826 5829 5833 5836 5839 5841 5844 5849 5853 5856 5858 5858 5858 5860 5862 5861 5862 5863 5864 5864 5864 5863 5860 5855 5852 5853 5853 5854 5854 5852 5851 5851 5849 5848 5846 5844 5841 5840 5838 5835 5833 5831 5830
5817 5821 5825 5827 5829 5832 5835 5838 5841 5846 5850 5853 5853 5852 5852 5855 5856 5855 5855 5857 5858 5858 5857 5855 5850 5847 5845 5846 5848 5848 5846 5845 5844 5842 5841 5839 5836 5834 5833 5831 5828 5826 5824 5822
5812 5817 5819 5821 5824 5827 5830 5833 5836 5839 5842 5843 5844 5844 5845 5846 5849 5849 5848 5848 5850 5852 5850 5848 5844 5841 5840 5841 5841 5840 5839 5837 5836 5834 5833 5830 5828 5825 5824 5822 5820 5818 5815 5813
5807 5811 5814 5816 5819 5822 5824 5827 5829 5831 5833 5835 5838 5837 5839 5839 5840 5841 5841 5841 5841 5843 5841 5839 5837 5835 5835 5834 5833 5832 5831 5829 5828 5826 5824 5822 5820 5818 5815 5814 5812 5809 5806 5804
5803 5806 5809 5812 5814 5816 5819 5821 5823 5825 5826 5827 5829 5829 5831 5833 5834 5835 5835 5834 5834 5833 5833 5830 5829 5828 5827 5826 5824 5823 5822 5821 5819 5818 5816 5813 5811 5809 5806 5804 5802 5799 5796 5794
5798 5802 5805 5807 5810 5811 5813 5815 5817 5818 5820 5820 5823 5823 5823 5826 5827 5829 5830 5829 5826 5824 5823 5820 5820 5820 5819 5817 5816 5814 5813 5812 5810 5809 5807 5805 5802 5800 5797 5794 5792 5788 5786 5783
5795 5797 5801 5803 5805 5807 5809 5811 5812 5813 5814 5815 5818 5817 5818 5819 5820 5822 5822 5821 5818 5815 5814 5812 5813 5812 5811 5809 5807 5806 5804 5803 5802 5800 5798 5796 5793 5790 5787 5784 5781 5778 5774 5772
5790 5794 5797 5799 5800 5803 5804 5806 5808 5810 5812 5814 5816 5816 5817 5814 5813 5812 5813 5812 5810 5808 5806 5805 5804 5803 5801 5800 5799 5798 5796 5795 5793 5791 5789 5787 5784 5781 5778 5774 5771 5768 5763 5760
5786 5791 5794 5793 5795 5797 5799 5800 5803 5804 5805 5806 5807 5809 5810 5808 5807 5805 5804 5803 5801 5798 5797 5795 5795 5794 5793 5791 5791 5789 5788 5786 5784 5782 5780 5777 5774 5772 5769 5764 5761 5758 5753 5749
5778 5783 5787 5790 5791 5791 5793 5796 5798 5798 5799 5799 5801 5803 5805 5803 5800 5798 5795 5793 5791 5788 5787 5786 5786 5785 5784 5784 5782 5781 5779 5778 5776 5773 5771 5768 5765 5762 5758 5754 5750 5746 5742 5737
5772 5776 5780 5785 5787 5788 5789 5789 5790 5792 5794 5795 5796 5800 5799 5793 5791 5790 5789 5787 5783 5780 5779 5779 5778 5778 5777 5776 5774 5772 5771 5769 5766 5764 5761 5758 5755 5751 5747 5743 5739 5735 5730 5724
5765 5768 5772 5776 5781 5782 5783 5785 5786 5786 5786 5787 5787 5792 5790 5786 5783 5782 5781 5778 5775 5772 5771 5770 5770 5770 5769 5768 5766 5764 5762 5759 5757 5754 5751 5748 5744 5740 5736 5732 5727 5722 5717 5711
5757 5760 5764 5768 5774 5776 5776 5777 5779 5780 5780 5779 5781 5784 5782 5775 5773 5773 5772 5770 5767 5763 5759 5760 5762 5762 5760 5759 5757 5754 5752 5749 5746 5743 5740 5736 5732 5728 5723 5719 5714 5709 5703 5697
5749 5752 5756 5761 5764 5765 5766 5767 5769 5771 5772 5772 5774 5774 5769 5764 5763 5764 5763 5760 5756 5752 5751 5752 5753 5752 5751 5749 5747 5744 5741 5738 5735 5732 5728 5724 5720 5716 5711 5706 5701 5695 5689 5683
5739 5743 5745 5749 5753 5755 5756 5757 5759 5760 5761 5762 5763 5763 5756 5753 5753 5753 5753 5751 5749 5747 5745 5744 5743 5742 5740 5738 5736 5733 5730 5726 5723 5719 5715 5711 5707 5702 5697 5692 5687 5681 5675 5669
5730 5733 5736 5739 5743 5745 5747 5749 5750 5751 5752 5752 5752 5752 5744 5743 5744 5745 5745 5744 5742 5739 5737 5734 5732 5730 5729 5726 5724 5721 5717 5713 5709 5705 5702 5698 5693 5689 5684 5679 5673 5667 5661 5655
5721 5724 5727 5729 5732 5733 5737 5740 5740 5741 5741 5740 5739 5736 5733 5734 5735 5736 5736 5735 5733 5730 5727 5723 5720 5718 5716 5713 5710 5707 5703 5700 5696 5692 5689 5685 5680 5676 5671 5665 5660 5654 5648 5642
5712 5714 5717 5719 5722 5723 5729 5727 5728 5730 5729 5728 5727 5725 5725 5725 5725 5725 5724 5723 5721 5718 5715 5712 5708 5705 5702 5699 5696 5693 5690 5687 5683 5680 5676 5672 5668 5663 5658 5653 5647 5641 5635 5629
5704 5706 5708 5710 5711 5714 5717 5714 5717 5718 5715 5715 5716 5717 5716 5716 5713 5712 5712 5710 5708 5705 5702 5699 5696 5693 5689 5686 5684 5681 5678 5675 5672 5668 5665 5660 5656 5651 5645 5640 5634 5628 5622 5617
5696 5697 5700 5701 5703 5705 5704 5705 5707 5709 5704 5706 5706 5706 5706 5705 5702 5701 5700 5698 5695 5693 5690 5687 5684 5681 5678 5675 5672 5669 5667 5664 5661 5657 5653 5649 5644 5639 5633 5627 5621 5616 5611 5605
5689 5691 5692 5693 5694 5694 5694 5696 5698 5699 5696 5696 5695 5695 5694 5693 5691 5690 5688 5686 5684 5681 5678 5675 5673 5670 5667 5664 5662 5659 5656 5653 5650 5647 5642 5638 5632 5627 5622 5615 5610 5605 5600 5594
5684 5685 5685 5685 5686 5687 5687 5688 5689 5688 5687 5686 5685 5684 5683 5682 5680 5679 5677 5676 5674 5671 5669 5666 5663 5660 5658 5655 5653 5650 5647 5644 5640 5636 5631 5626 5621 5616 5611 5606 5600 5594 5589 5583
5678 5679 5679 5680 5680 5679 5679 5679 5679 5679 5678 5677 5676 5674 5673 5672 5670 5669 5668 5666 5665 5662 5660 5658 5655 5653 5650 5648 5645 5642 5639 5635 5631 5627 5622 5616 5611 5606 5601 5596 5590 5584 5578 5572
5672 5673 5673 5673 5672 5672 5671 5671 5671 5670 5669 5667 5666 5665 5664 5662 5661 5660 5659 5658 5657 5655 5653 5651 5648 5646 5643 5641 5638 5634 5631 5626 5622 5618 5613 5608 5603 5598 5592 5586 5580 5574 5569 5564
5667 5668 5668 5667 5666 5665 5664 5663 5662 5661 5660 5658 5657 5656 5655 5654 5654 5653 5653 5652 5651 5649 5647 5645 5643 5641 5638 5635 5631 5627 5623 5619 5615 5611 5606 5601 5595 5589 5583 5577 5572 5567 5563 5559
5662 5663 5662 5661 5660 5658 5657 5656 5655 5653 5652 5651 5650 5649 5649 5648 5648 5648 5648 5647 5646 5645 5643 5641 5639 5636 5633 5630 5626 5623 5619 5614 5610 5604 5599 5593 5587 5582 5577 5572 5567 5563 5559 5555